DLH405 KJFK-EDDF

Flight info

Callsign DLH405
Flight time N/A
Altitude 37000
Route GREKI DCT JUDDS DCT MARTN DCT EBONY N567B TUDEP/M081F390 DCT 52N050W 54N040W 55N030W 55N020W DCT DOGAL DCT BEXET/N0468F390 DCT MORAG DCT NUCHU L607 KONAN DCT KOK UL607 FERDI DCT REMBA DCT SPI T180 NIVNU T847 IMCOM IMCOM1D
Aircraft A346/H-SDE2E3FGHIJ3J4J5M1RWXY/LB1D1

Departure

Time 2026-05-08 06:04
Airport John F. Kennedy International Airport (KJFK)

Arrival

Time N/A
Airport Frankfurt Main Airport (EDDF)
Time Latitude Longitude Altitude Speed Heading
2026-05-08 05:36 40.64164 -73.79147 33 ft 0 kts 307°
2026-05-08 05:51 40.64162 -73.79143 33 ft 3 kts 307°
2026-05-08 05:51 40.64145 -73.79115 31 ft 4 kts 307°
2026-05-08 05:51 40.64134 -73.79094 31 ft 4 kts 295°
2026-05-08 05:51 40.64130 -73.79074 32 ft 4 kts 256°
2026-05-08 05:52 40.64134 -73.79061 29 ft 0 kts 238°
2026-05-08 05:52 40.64133 -73.79062 29 ft 0 kts 238°
2026-05-08 05:53 40.64134 -73.79062 33 ft 0 kts 238°
2026-05-08 05:56 40.64127 -73.79075 27 ft 6 kts 234°
2026-05-08 05:56 40.64069 -73.79144 33 ft 14 kts 220°
2026-05-08 05:57 40.64007 -73.79223 32 ft 7 kts 224°
2026-05-08 05:57 40.63952 -73.79227 28 ft 10 kts 137°
2026-05-08 05:57 40.63909 -73.79142 30 ft 12 kts 121°
2026-05-08 05:57 40.63858 -73.79030 32 ft 18 kts 121°
2026-05-08 05:58 40.63789 -73.78877 34 ft 20 kts 121°
2026-05-08 05:58 40.63715 -73.78715 37 ft 21 kts 121°
2026-05-08 05:58 40.63636 -73.78541 37 ft 22 kts 121°
2026-05-08 05:58 40.63631 -73.78529 37 ft 22 kts 121°
2026-05-08 05:59 40.63563 -73.78378 36 ft 23 kts 120°
2026-05-08 05:59 40.63475 -73.78181 33 ft 26 kts 121°
2026-05-08 05:59 40.63380 -73.77971 32 ft 27 kts 120°
2026-05-08 05:59 40.63286 -73.77754 36 ft 27 kts 121°
2026-05-08 06:00 40.63190 -73.77548 37 ft 23 kts 121°
2026-05-08 06:00 40.63113 -73.77376 36 ft 23 kts 120°
2026-05-08 06:00 40.63041 -73.77214 35 ft 16 kts 121°
2026-05-08 06:00 40.62993 -73.77107 32 ft 9 kts 121°
2026-05-08 06:01 40.62953 -73.77091 32 ft 8 kts 196°
2026-05-08 06:01 40.62897 -73.77126 32 ft 10 kts 210°
2026-05-08 06:01 40.62829 -73.77177 32 ft 9 kts 212°
2026-05-08 06:01 40.62829 -73.77240 32 ft 6 kts 296°
2026-05-08 06:02 40.62840 -73.77267 32 ft 0 kts 301°
2026-05-08 06:03 40.62911 -73.77423 36 ft 50 kts 301°
2026-05-08 06:03 40.63200 -73.78059 34 ft 110 kts 301°
2026-05-08 06:03 40.63687 -73.79134 31 ft 161 kts 301°
2026-05-08 06:03 40.64313 -73.80542 239 ft 185 kts 301°
2026-05-08 06:04 40.64926 -73.81978 982 ft 179 kts 291°
2026-05-08 06:04 40.64939 -73.83574 1664 ft 180 kts 244°
2026-05-08 06:04 40.64123 -73.84848 2183 ft 188 kts 226°
2026-05-08 06:04 40.63167 -73.86106 2577 ft 199 kts 227°
2026-05-08 06:05 40.62189 -73.87423 3097 ft 206 kts 227°
2026-05-08 06:05 40.61153 -73.88806 3637 ft 212 kts 227°
2026-05-08 06:05 40.59985 -73.90041 4075 ft 227 kts 206°
2026-05-08 06:05 40.58368 -73.90381 4391 ft 250 kts 174°
2026-05-08 06:06 40.56608 -73.89874 4866 ft 266 kts 166°
2026-05-08 06:06 40.54816 -73.89136 5581 ft 272 kts 164°
2026-05-08 06:06 40.53010 -73.88322 6421 ft 276 kts 164°
2026-05-08 06:06 40.51192 -73.87459 7206 ft 280 kts 162°
2026-05-08 06:07 40.49535 -73.86047 7898 ft 295 kts 133°
2026-05-08 06:07 40.48616 -73.83618 8586 ft 305 kts 99°
2026-05-08 06:07 40.48760 -73.80852 9293 ft 306 kts 66°
2026-05-08 06:07 40.49931 -73.78576 9976 ft 300 kts 33°
2026-05-08 06:08 40.51750 -73.77349 10588 ft 296 kts 13°
2026-05-08 06:08 40.53745 -73.76428 11042 ft 313 kts 14°
2026-05-08 06:08 40.55842 -73.75382 11433 ft 332 kts 16°
2026-05-08 06:08 40.58045 -73.74202 11812 ft 350 kts 17°
2026-05-08 06:09 40.60342 -73.72913 12171 ft 369 kts 18°
2026-05-08 06:09 40.62730 -73.71538 12562 ft 386 kts 19°
2026-05-08 06:09 40.65257 -73.70055 13245 ft 393 kts 19°
2026-05-08 06:09 40.67749 -73.68574 14036 ft 397 kts 19°
2026-05-08 06:10 40.70282 -73.67061 14681 ft 403 kts 19°
2026-05-08 06:10 40.72857 -73.65525 15256 ft 410 kts 19°
2026-05-08 06:10 40.75449 -73.63977 15780 ft 419 kts 18°
2026-05-08 06:10 40.78184 -73.62355 16237 ft 430 kts 17°
2026-05-08 06:11 40.80900 -73.60745 16821 ft 438 kts 17°
2026-05-08 06:11 40.83694 -73.59083 17502 ft 442 kts 17°
2026-05-08 06:11 40.86510 -73.57402 18182 ft 447 kts 17°
2026-05-08 06:11 40.89374 -73.55691 18671 ft 454 kts 17°
2026-05-08 06:12 40.92280 -73.53955 19171 ft 460 kts 17°
2026-05-08 06:12 40.95216 -73.52198 19683 ft 466 kts 17°
2026-05-08 06:12 40.98186 -73.50418 20194 ft 472 kts 17°
2026-05-08 06:12 41.01208 -73.48605 20717 ft 478 kts 17°
2026-05-08 06:13 41.04249 -73.46780 21259 ft 483 kts 17°
2026-05-08 06:13 41.07342 -73.44920 21770 ft 488 kts 16°
2026-05-08 06:13 41.10492 -73.43024 22246 ft 494 kts 16°
2026-05-08 06:13 41.13601 -73.41152 22710 ft 500 kts 16°
2026-05-08 06:14 41.16796 -73.39225 23185 ft 506 kts 16°
2026-05-08 06:14 41.20017 -73.37281 23693 ft 512 kts 17°
2026-05-08 06:14 41.23272 -73.35316 24129 ft 516 kts 17°
2026-05-08 06:14 41.26546 -73.33332 24612 ft 519 kts 16°
2026-05-08 06:15 41.29839 -73.31332 25092 ft 521 kts 16°
2026-05-08 06:15 41.33144 -73.29324 25528 ft 524 kts 16°
2026-05-08 06:15 41.36477 -73.27302 25923 ft 528 kts 16°
2026-05-08 06:15 41.39828 -73.25269 26401 ft 531 kts 17°
2026-05-08 06:16 41.43201 -73.23218 26866 ft 534 kts 17°
2026-05-08 06:16 41.46591 -73.21149 27330 ft 536 kts 16°
2026-05-08 06:16 41.49991 -73.19071 27871 ft 537 kts 16°
2026-05-08 06:16 41.53376 -73.16998 28533 ft 534 kts 16°
2026-05-08 06:17 41.60160 -73.13278 29948 ft 516 kts
2026-05-08 06:17 41.63626 -73.12220 30469 ft 503 kts 358°
2026-05-08 06:17 41.67064 -73.11769 30976 ft 491 kts 351°
2026-05-08 06:18 41.70430 -73.11878 31421 ft 479 kts 344°
2026-05-08 06:18 41.73731 -73.12382 31882 ft 475 kts 341°
2026-05-08 06:18 41.76968 -73.12969 32354 ft 476 kts 341°
2026-05-08 06:18 41.80299 -73.13592 32715 ft 479 kts 342°
2026-05-08 06:19 41.83572 -73.14185 33077 ft 481 kts 342°
2026-05-08 06:19 41.86891 -73.14769 33465 ft 482 kts 343°
2026-05-08 06:19 41.90218 -73.15345 33894 ft 482 kts 343°
2026-05-08 06:19 41.93548 -73.15916 34265 ft 482 kts 343°
2026-05-08 06:20 41.96875 -73.16483 34643 ft 482 kts 343°
2026-05-08 06:20 42.00205 -73.17051 35072 ft 481 kts 343°
2026-05-08 06:20 42.03529 -73.17622 35359 ft 483 kts 343°
2026-05-08 06:20 42.06874 -73.18195 35614 ft 485 kts 343°
2026-05-08 06:21 42.10223 -73.18770 35869 ft 486 kts 343°
2026-05-08 06:21 42.13586 -73.19346 36129 ft 488 kts 343°
2026-05-08 06:21 42.16954 -73.19924 36381 ft 489 kts 343°
2026-05-08 06:21 42.20331 -73.20505 36642 ft 490 kts 343°
2026-05-08 06:22 42.23727 -73.21092 36829 ft 492 kts 343°
2026-05-08 06:22 42.27089 -73.21672 36857 ft 494 kts 343°
2026-05-08 06:22 42.33902 -73.22844 36867 ft 494 kts 343°
2026-05-08 06:23 42.40726 -73.24025 36911 ft 494 kts 343°
2026-05-08 06:23 42.47571 -73.25133 36866 ft 501 kts 349°
2026-05-08 06:24 42.51101 -73.24906 36867 ft 515 kts
2026-05-08 06:24 42.54625 -73.23725 36870 ft 528 kts 13°
2026-05-08 06:24 42.57975 -73.21578 36890 ft 539 kts 26°
2026-05-08 06:24 42.61005 -73.18492 36902 ft 546 kts 40°
2026-05-08 06:25 42.63517 -73.14607 36898 ft 550 kts 53°
2026-05-08 06:25 42.65520 -73.10163 36924 ft 552 kts 59°
2026-05-08 06:25 42.69225 -73.00964 36907 ft 554 kts 60°
2026-05-08 06:26 42.72943 -72.91774 36886 ft 556 kts 59°
2026-05-08 06:26 42.76738 -72.82568 36911 ft 556 kts 59°
2026-05-08 06:27 42.80520 -72.73437 36900 ft 556 kts 59°
2026-05-08 06:27 42.84321 -72.64250 36900 ft 556 kts 59°
2026-05-08 06:28 42.88122 -72.55037 36911 ft 557 kts 59°
2026-05-08 06:28 42.91905 -72.45838 36887 ft 554 kts 60°
2026-05-08 06:29 42.95663 -72.36658 36881 ft 553 kts 60°
2026-05-08 06:29 42.99415 -72.27470 36877 ft 553 kts 60°
2026-05-08 06:30 43.03179 -72.18224 36906 ft 555 kts 60°
2026-05-08 06:30 43.06925 -72.08997 36891 ft 554 kts 60°
2026-05-08 06:31 43.10659 -71.99763 36884 ft 554 kts 60°
2026-05-08 06:31 43.14383 -71.90525 36844 ft 554 kts 60°
2026-05-08 06:32 43.18088 -71.81307 36870 ft 555 kts 60°
2026-05-08 06:32 43.21832 -71.71960 36861 ft 555 kts 60°
2026-05-08 06:33 43.25518 -71.62728 36862 ft 555 kts 60°
2026-05-08 06:33 43.29224 -71.53421 36823 ft 555 kts 60°
2026-05-08 06:34 43.32928 -71.44085 36854 ft 556 kts 61°
2026-05-08 06:34 43.36630 -71.34721 36860 ft 556 kts 61°
2026-05-08 06:35 43.40321 -71.25352 36844 ft 556 kts 61°
2026-05-08 06:35 43.44000 -71.15989 36873 ft 555 kts 61°
2026-05-08 06:36 43.47662 -71.06636 36851 ft 554 kts 61°
2026-05-08 06:36 43.50694 -70.98869 36842 ft 554 kts 61°
2026-05-08 06:37 43.54930 -70.87981 36844 ft 554 kts 61°
2026-05-08 06:37 43.57979 -70.80123 36855 ft 553 kts 62°
2026-05-08 06:38 43.61595 -70.70770 36790 ft 552 kts 62°
2026-05-08 06:38 43.65205 -70.61407 36831 ft 552 kts 62°
2026-05-08 06:39 43.68784 -70.52082 36841 ft 552 kts 62°
2026-05-08 06:39 43.72374 -70.42708 36839 ft 551 kts 62°
2026-05-08 06:40 43.75950 -70.33329 36838 ft 550 kts 62°
2026-05-08 06:40 43.79518 -70.23943 36834 ft 550 kts 63°
2026-05-08 06:41 43.83085 -70.14540 36812 ft 550 kts 63°
2026-05-08 06:41 43.86644 -70.05125 36828 ft 550 kts 63°
2026-05-08 06:42 43.90183 -69.95712 36834 ft 550 kts 63°
2026-05-08 06:42 43.93723 -69.86271 36832 ft 550 kts 63°
2026-05-08 06:43 43.97253 -69.76830 36838 ft 550 kts 64°
2026-05-08 06:43 44.00764 -69.67408 36829 ft 549 kts 64°
2026-05-08 06:44 44.04277 -69.57955 36802 ft 551 kts 64°
2026-05-08 06:44 44.07788 -69.48463 36822 ft 552 kts 64°
2026-05-08 06:45 44.11268 -69.39028 36822 ft 551 kts 64°
2026-05-08 06:45 44.14769 -69.29501 36807 ft 551 kts 64°
2026-05-08 06:46 44.18257 -69.19976 36810 ft 551 kts 65°
2026-05-08 06:46 44.21742 -69.10428 36804 ft 551 kts 65°
2026-05-08 06:47 44.25224 -69.00872 36800 ft 552 kts 65°
2026-05-08 06:47 44.28690 -68.91303 36796 ft 552 kts 65°
2026-05-08 06:48 44.32157 -68.81700 36793 ft 552 kts 65°
2026-05-08 06:48 44.35588 -68.72168 36793 ft 552 kts 65°
2026-05-08 06:49 44.39036 -68.62560 36793 ft 552 kts 66°
2026-05-08 06:49 44.42471 -68.52947 36736 ft 552 kts 66°
2026-05-08 06:50 44.45904 -68.43321 36787 ft 552 kts 66°
2026-05-08 06:50 44.49322 -68.33686 36805 ft 552 kts 66°
2026-05-08 06:51 44.52735 -68.24034 36795 ft 552 kts 66°
2026-05-08 06:51 44.56138 -68.14376 36788 ft 552 kts 66°
2026-05-08 06:52 44.59531 -68.04713 36781 ft 552 kts 66°
2026-05-08 06:52 44.62915 -67.95045 36730 ft 552 kts 67°
2026-05-08 06:53 44.66276 -67.85409 36764 ft 552 kts 67°
2026-05-08 06:53 44.69652 -67.75686 36770 ft 552 kts 67°
2026-05-08 06:54 44.73015 -67.65973 36771 ft 552 kts 67°
2026-05-08 06:54 44.76374 -67.56240 36770 ft 552 kts 67°
2026-05-08 06:55 44.79719 -67.46505 36765 ft 552 kts 68°
2026-05-08 06:55 44.83061 -67.36750 36722 ft 552 kts 68°
2026-05-08 06:56 44.86392 -67.26980 36752 ft 553 kts 68°
2026-05-08 06:56 44.89954 -67.17332 36754 ft 556 kts 62°